Volver al catálogo

ALOS

ActivoCienciaSSO
NORAD 28931·PAYLOAD·🇯🇵 Japan

Lanzado Jan 24, 2006 desde Tanegashima Space Center

Loading…

Próximos Pases (próximas 24 horas)

TLE

ActualizadoSource: Space-Track

Época: Sep 14, 2026, 07:40 UTC

1 28931U 06002A   26257.31967137  .00000990  00000-0  17262-3 0  9999
2 28931  98.1418 212.6573 0002128  74.6747 285.4694 14.70215261101199

Sigue ALOS en tiempo real con AllMySat

Download on the App Store